STARLINK-36543, 67515

Orbit data source: Space-Track

STARLINK-36543, 67515 is a payload satellite owned by SpaceX/Seattle (US) in LEO that was launched on Sun, 18 Jan 2026 UTC via an FALCON 9 launch vehicle from the Air Force Eastern Test Range (AFETR). Payload-class satellites include a variety of spacecraft equipped with specific instruments for various scientific and technological missions. These include communications satellites like Starlink; space stations such as the ISS; scientific satellites like the Hubble; Earth observation satellites from companies like Planet Labs, Umbra, and HawkEye 360; GPS; miniature CubeSats for education and research; and military/defense satellites.

Loading next visibility...
Identifier
67515, 2026-012Y
Orbit
LEO
Country
Flag of USUS
Related business
Manufacturer
SpaceX/Seattle
Mission
Operational Commercial Communications
Bus & Motor
STARLINK V2MO, Unknown motor
Mass
575 kg wet, ~530 kg dry
Launch date (UTC)
2026-01-18 (5 months ago)
Launch vehicle
FALCON 9
Launch site
Air Force Eastern Test Range (AFETR)
Object type
Payload
Rocket body
Debris
Shape & HBR
Box + 2 Pan, 17.7 m
Radar Cross Section
36.964 m², Large (>1 m²)

Expand to show TLE details & history
Last TLE update: 17 hours ago

TLE from 17 hours ago
0 STARLINK-36543
1 67515U 26012Y   26171.16172846  .00015331  00000-0  56484-3 0  9990
2 67515  43.0001  95.6959 0001031 262.6361  97.4373 15.27616345 23433
Epoch: 2026-06-20T03:52Z
TLE epoch observation values (Epoch: 2026-06-20T03:52:53.338Z)
Latitude
-0.00007°
Longitude
129.09326°
Altitude
482.807 km
Speed
7.626 km/s
True Right ascension
06h 22m 46s
True Declination
0° 00' 00"
Sunlit
Object was in daylight at epoch
Visualization orbit readout
Latitude
Unknown
Longitude
Unknown
Altitude
Unknown
Speed
Unknown
Apparent Right ascension
Unknown
Apparent Declination
Unknown
Sunlit
N/A
Visualization observer readout
Local Sidereal Time
07:24:25
Azimuth
Unknown
Elevation
Unknown
Doppler factor
Unknown
Orbital elements
Apogee altitude
485.593 km
Perigee altitude
484.178 km
Semi-major axis
6,863.022 km
Eccentricity
0.0001
Inclination
43.0001°
RAAN
95.6959°
Arg. of periapsis
262.6361°
True anomaly
97.44901°
Mean anomaly
97.4373°
Eccentric anomaly
97.44316°
Mean motion
3.81742 °/min
Orbital period
94.3 mins
BSTAR
0.00056484
Loading maneuver chart data...
Computing Atmospheric mass density...
Loading historical data...
Loading historical data...
Loading historical data...
Loading historical data...
Loading historical data...
Loading historical data...
Loading historical data...

Documentation

Showing up to 5 results
|